| time (UTC) | temp F | wind direction | speed MPH | gust MPH | rain 1hr in | rain 24hr in | rain mn in | humidity % | barometer mb |
| 20260510174545 | 80 | 240 | 1.0 | 8.0 | 0.00 | 0.00 | 0.00 | 43 | 974.9 |
| 20260510174047 | 81 | 37 | 2.0 | 8.0 | 0.00 | 0.00 | 0.00 | 42 | 974.9 |
| 20260510173543 | 82 | 270 | 2.0 | 6.0 | 0.00 | 0.00 | 0.00 | 45 | 975.0 |
| 20260510173042 | 80 | 71 | 0.0 | 6.0 | 0.00 | 0.00 | 0.00 | 44 | 975.0 |
| 20260510172542 | 81 | 71 | 2.0 | 12.0 | 0.00 | 0.00 | 0.00 | 43 | 975.2 |
| 20260510172045 | 82 | 123 | 2.0 | 12.0 | 0.00 | 0.00 | 0.00 | 45 | 975.1 |
| 20260510171542 | 81 | 29 | 2.0 | 9.0 | 0.00 | 0.00 | 0.00 | 44 | 975.1 |
| 20260510171044 | 80 | 231 | 1.0 | 7.0 | 0.00 | 0.00 | 0.00 | 43 | 975.2 |
| 20260510170541 | 81 | 30 | 2.0 | 6.0 | 0.00 | 0.00 | 0.00 | 43 | 975.2 |
| 20260510170044 | 80 | 239 | 0.0 | 5.0 | 0.00 | 0.00 | 0.00 | 46 | 975.2 |
| 20260510165540 | 80 | 225 | 1.0 | 6.0 | 0.00 | 0.00 | 0.00 | 43 | 975.3 |
| 20260510165043 | 82 | 11 | 1.0 | 6.0 | 0.00 | 0.00 | 0.00 | 43 | 975.2 |
| 20260510164542 | 81 | 271 | 3.0 | 11.0 | 0.00 | 0.00 | 0.00 | 45 | 975.2 |
| 20260510164038 | 80 | 24 | 2.0 | 10.0 | 0.00 | 0.00 | 0.00 | 46 | 975.3 |
| 20260510163538 | 81 | 241 | 2.0 | 7.0 | 0.00 | 0.00 | 0.00 | 44 | 975.3 |
| 20260510163049 | 81 | 11 | 2.0 | 7.0 | 0.00 | 0.00 | 0.00 | 42 | 975.2 |
| 20260510162537 | 80 | 28 | 3.0 | 9.0 | 0.00 | 0.00 | 0.00 | 45 | 975.2 |
| 20260510162034 | 79 | 57 | 0.0 | 9.0 | 0.00 | 0.00 | 0.00 | 52 | 975.3 |
| 20260510161545 | 79 | 62 | 4.0 | 8.0 | 0.00 | 0.00 | 0.00 | 49 | 975.3 |
| 20260510161033 | 79 | 5 | 2.0 | 6.0 | 0.00 | 0.00 | 0.00 | 50 | 975.4 |
| 20260510160533 | 78 | 273 | 1.0 | 11.0 | 0.00 | 0.00 | 0.00 | 50 | 975.4 |
| 20260510160045 | 78 | 82 | 3.0 | 11.0 | 0.00 | 0.00 | 0.00 | 50 | 975.4 |
| 20260510155535 | 78 | 16 | 3.0 | 9.0 | 0.00 | 0.00 | 0.00 | 50 | 975.5 |
| 20260510155033 | 78 | 19 | 2.0 | 9.0 | 0.00 | 0.00 | 0.00 | 51 | 975.5 |
| 20260510154529 | 78 | 14 | 2.0 | 6.0 | 0.00 | 0.00 | 0.00 | 51 | 975.5 |
| 20260510154029 | 77 | 55 | 3.0 | 8.0 | 0.00 | 0.00 | 0.00 | 52 | 975.5 |
| 20260510153528 | 77 | 63 | 5.0 | 8.0 | 0.00 | 0.00 | 0.00 | 51 | 975.6 |
| 20260510153028 | 77 | 270 | 2.0 | 11.0 | 0.00 | 0.00 | 0.00 | 52 | 975.7 |
| 20260510152530 | 77 | 80 | 3.0 | 11.0 | 0.00 | 0.00 | 0.00 | 54 | 975.7 |
| 20260510152025 | 76 | 11 | 2.0 | 7.0 | 0.00 | 0.00 | 0.00 | 53 | 975.7 |
| 20260510151524 | 76 | 246 | 2.0 | 8.0 | 0.00 | 0.00 | 0.00 | 53 | 975.9 |
| 20260510151023 | 76 | 5 | 2.0 | 12.0 | 0.00 | 0.00 | 0.00 | 54 | 975.8 |
| 20260510150523 | 76 | 271 | 4.0 | 12.0 | 0.00 | 0.00 | 0.00 | 54 | 975.9 |
| 20260510150024 | 75 | 10 | 1.0 | 7.0 | 0.00 | 0.00 | 0.00 | 55 | 976.0 |
| 20260510145523 | 75 | 5 | 3.0 | 7.0 | 0.00 | 0.00 | 0.00 | 55 | 975.9 |
| 20260510145018 | 74 | 35 | 2.0 | 9.0 | 0.00 | 0.00 | 0.00 | 57 | 975.9 |
| 20260510144530 | 74 | 11 | 1.0 | 9.0 | 0.00 | 0.00 | 0.00 | 58 | 975.9 |
| 20260510144021 | 73 | 26 | 4.0 | 12.0 | 0.00 | 0.00 | 0.00 | 57 | 975.9 |
| 20260510143517 | 73 | 38 | 4.0 | 12.0 | 0.00 | 0.00 | 0.00 | 57 | 975.9 |
| 20260510143018 | 73 | 5 | 3.0 | 6.0 | 0.00 | 0.00 | 0.00 | 58 | 975.9 |
| 20260510142515 | 73 | 12 | 3.0 | 7.0 | 0.00 | 0.00 | 0.00 | 60 | 976.0 |
| 20260510142014 | 73 | 88 | 2.0 | 7.0 | 0.00 | 0.00 | 0.00 | 59 | 976.0 |
| 20260510141522 | 72 | 270 | 1.0 | 5.0 | 0.00 | 0.00 | 0.00 | 60 | 976.0 |
| 20260510141012 | 72 | 5 | 2.0 | 4.0 | 0.00 | 0.00 | 0.00 | 61 | 975.9 |
| 20260510140510 | 71 | 243 | 1.0 | 6.0 | 0.00 | 0.00 | 0.00 | 62 | 975.9 |
| 20260510140012 | 71 | 272 | 2.0 | 6.0 | 0.00 | 0.00 | 0.00 | 62 | 976.0 |
| 20260510135514 | 70 | 30 | 1.0 | 6.0 | 0.00 | 0.00 | 0.00 | 63 | 976.0 |
| 20260510135006 | 70 | 198 | 2.0 | 9.0 | 0.00 | 0.00 | 0.00 | 63 | 976.2 |
| 20260510134505 | 69 | 45 | 1.0 | 7.0 | 0.00 | 0.00 | 0.00 | 64 | 976.2 |
| 20260510134004 | 69 | 28 | 1.0 | 8.0 | 0.00 | 0.00 | 0.00 | 64 | 976.1 |
| 20260510133507 | 69 | 24 | 3.0 | 8.0 | 0.00 | 0.00 | 0.00 | 64 | 976.1 |
| 20260510133003 | 69 | 5 | 3.0 | 5.0 | 0.00 | 0.00 | 0.00 | 64 | 976.1 |
| 20260510132503 | 68 | 267 | 2.0 | 4.0 | 0.00 | 0.00 | 0.00 | 65 | 976.2 |
| 20260510132101 | 68 | 271 | 1.0 | 6.0 | 0.00 | 0.00 | 0.00 | 66 | 976.2 |
| 20260510131601 | 67 | 221 | 2.0 | 7.0 | 0.00 | 0.00 | 0.00 | 66 | 976.1 |
| 20260510131059 | 67 | 271 | 2.0 | 7.0 | 0.00 | 0.00 | 0.00 | 66 | 976.2 |
| 20260510130558 | 67 | 275 | 2.0 | 5.0 | 0.00 | 0.00 | 0.00 | 66 | 976.1 |
| 20260510130101 | 66 | 219 | 1.0 | 6.0 | 0.00 | 0.00 | 0.00 | 67 | 976.2 |
| 20260510125558 | 66 | 243 | 1.0 | 6.0 | 0.00 | 0.00 | 0.00 | 68 | 976.1 |
| 20260510125054 | 66 | 25 | 1.0 | 6.0 | 0.00 | 0.00 | 0.00 | 69 | 976.1 |
| 20260510124554 | 65 | 12 | 1.0 | 5.0 | 0.00 | 0.00 | 0.00 | 71 | 976.1 |
| 20260510124053 | 64 | 271 | 1.0 | 5.0 | 0.00 | 0.00 | 0.00 | 72 | 976.1 |
| 20260510123555 | 64 | 258 | 1.0 | 6.0 | 0.00 | 0.00 | 0.00 | 73 | 976.0 |
| 20260510123049 | 63 | 275 | 2.0 | 6.0 | 0.00 | 0.00 | 0.00 | 74 | 976.0 |
| 20260510122546 | 62 | 261 | 1.0 | 5.0 | 0.00 | 0.00 | 0.00 | 76 | 975.9 |
| 20260510122045 | 62 | 50 | 1.0 | 5.0 | 0.00 | 0.00 | 0.00 | 77 | 976.0 |
| 20260510121544 | 61 | 15 | 2.0 | 5.0 | 0.00 | 0.00 | 0.00 | 79 | 976.0 |
| 20260510121046 | 60 | 26 | 2.0 | 4.0 | 0.00 | 0.00 | 0.00 | 80 | 975.9 |
| 20260510120541 | 59 | 27 | 1.0 | 5.0 | 0.00 | 0.00 | 0.00 | 81 | 975.8 |
| 20260510120039 | 58 | 59 | 2.0 | 5.0 | 0.00 | 0.00 | 0.00 | 82 | 975.9 |
| 20260510115537 | 58 | 9 | 0.0 | 3.0 | 0.00 | 0.00 | 0.00 | 83 | 975.9 |
| 20260510115036 | 57 | 10 | 2.0 | 3.0 | 0.00 | 0.00 | 0.00 | 83 | 975.9 |
| 20260510114536 | 56 | 9 | 1.0 | 4.0 | 0.00 | 0.00 | 0.00 | 84 | 975.8 |
| 20260510114034 | 56 | 9 | 1.0 | 4.0 | 0.00 | 0.00 | 0.00 | 85 | 975.7 |
| 20260510113534 | 55 | 40 | 1.0 | 3.0 | 0.00 | 0.00 | 0.00 | 85 | 975.6 |
| 20260510113034 | 55 | 51 | 0.0 | 3.0 | 0.00 | 0.00 | 0.00 | 86 | 975.7 |
| 20260510112533 | 54 | 22 | 1.0 | 4.0 | 0.00 | 0.00 | 0.00 | 86 | 975.6 |
| 20260510112033 | 54 | 22 | 1.0 | 4.0 | 0.00 | 0.00 | 0.00 | 86 | 975.5 |
| 20260510111532 | 53 | 9 | 2.0 | 4.0 | 0.00 | 0.00 | 0.00 | 86 | 975.4 |
| 20260510111031 | 53 | 10 | 1.0 | 3.0 | 0.00 | 0.00 | 0.00 | 86 | 975.3 |
| 20260510110530 | 53 | 10 | 0.0 | 3.0 | 0.00 | 0.00 | 0.00 | 86 | 975.2 |
| 20260510110029 | 53 | 10 | 1.0 | 3.0 | 0.00 | 0.00 | 0.00 | 86 | 975.0 |
| 20260510105528 | 53 | 11 | 1.0 | 4.0 | 0.00 | 0.00 | 0.00 | 86 | 974.9 |
| 20260510105027 | 53 | 11 | 2.0 | 4.0 | 0.00 | 0.00 | 0.00 | 86 | 974.8 |
| 20260510104527 | 52 | 28 | 1.0 | 3.0 | 0.00 | 0.00 | 0.00 | 86 | 974.7 |
| 20260510104025 | 52 | 33 | 1.0 | 3.0 | 0.00 | 0.00 | 0.00 | 86 | 974.7 |
| 20260510103525 | 52 | 27 | 1.0 | 3.0 | 0.00 | 0.00 | 0.00 | 86 | 974.7 |
| 20260510103025 | 52 | 27 | 0.0 | 3.0 | 0.00 | 0.00 | 0.00 | 86 | 974.6 |
| 20260510102525 | 52 | 27 | 0.0 | 3.0 | 0.00 | 0.00 | 0.00 | 86 | 974.6 |
| 20260510102024 | 52 | 27 | 0.0 | 2.0 | 0.00 | 0.00 | 0.00 | 86 | 974.4 |
| 20260510101523 | 52 | 27 | 0.0 | 2.0 | 0.00 | 0.00 | 0.00 | 85 | 974.5 |
| 20260510101024 | 53 | 27 | 0.0 | 1.0 | 0.00 | 0.00 | 0.00 | 86 | 974.4 |
| 20260510100523 | 53 | 27 | 0.0 | 3.0 | 0.00 | 0.00 | 0.00 | 86 | 974.4 |
| 20260510100023 | 52 | 27 | 0.0 | 3.0 | 0.00 | 0.00 | 0.00 | 86 | 974.4 |
| 20260510095523 | 52 | 5 | 0.0 | 3.0 | 0.00 | 0.00 | 0.00 | 86 | 974.3 |
| 20260510095023 | 52 | 5 | 1.0 | 3.0 | 0.00 | 0.00 | 0.00 | 86 | 974.3 |
| 20260510094522 | 52 | 5 | 1.0 | 3.0 | 0.00 | 0.00 | 0.00 | 85 | 974.2 |
| 20260510094021 | 52 | 5 | 0.0 | 2.0 | 0.00 | 0.00 | 0.00 | 85 | 974.2 |
| 20260510093522 | 52 | 5 | 0.0 | 2.0 | 0.00 | 0.00 | 0.00 | 84 | 974.2 |
| 20260510093020 | 52 | 5 | 0.0 | 2.0 | 0.00 | 0.00 | 0.00 | 83 | 974.1 |
| 20260510092519 | 53 | 5 | 0.0 | 1.0 | 0.00 | 0.00 | 0.00 | 83 | 974.0 |
| 20260510092018 | 53 | 5 | 0.0 | 1.0 | 0.00 | 0.00 | 0.00 | 83 | 973.9 |
| 20260510091518 | 54 | 5 | 0.0 | 2.0 | 0.00 | 0.00 | 0.00 | 82 | 973.9 |
| 20260510091018 | 54 | 5 | 0.0 | 3.0 | 0.00 | 0.00 | 0.00 | 82 | 973.9 |
| 20260510090518 | 54 | 5 | 0.0 | 3.0 | 0.00 | 0.00 | 0.00 | 82 | 973.8 |
| 20260510090019 | 54 | 5 | 0.0 | 3.0 | 0.00 | 0.00 | 0.00 | 81 | 973.8 |
| 20260510085516 | 55 | 5 | 0.0 | 4.0 | 0.00 | 0.00 | 0.00 | 81 | 973.8 |
| 20260510085020 | 55 | 5 | 1.0 | 4.0 | 0.00 | 0.00 | 0.00 | 81 | 973.8 |
| 20260510084516 | 55 | 5 | 0.0 | 5.0 | 0.00 | 0.00 | 0.00 | 81 | 973.8 |
| 20260510084016 | 55 | 9 | 1.0 | 5.0 | 0.00 | 0.00 | 0.00 | 81 | 973.8 |
| 20260510083518 | 55 | 10 | 1.0 | 3.0 | 0.00 | 0.00 | 0.00 | 82 | 973.8 |
| 20260510083015 | 55 | 9 | 1.0 | 4.0 | 0.00 | 0.00 | 0.00 | 82 | 973.8 |
| 20260510082515 | 55 | 10 | 1.0 | 3.0 | 0.00 | 0.00 | 0.00 | 82 | 973.7 |
| 20260510082014 | 55 | 10 | 0.0 | 6.0 | 0.00 | 0.00 | 0.00 | 83 | 973.7 |
| 20260510081532 | 54 | 10 | 0.0 | 6.0 | 0.00 | 0.00 | 0.00 | 83 | 973.6 |
| 20260510081012 | 54 | 267 | 1.0 | 4.0 | 0.00 | 0.00 | 0.00 | 82 | 973.5 |
| 20260510080511 | 54 | 267 | 2.0 | 4.0 | 0.00 | 0.00 | 0.00 | 82 | 973.4 |
| 20260510080011 | 54 | 257 | 1.0 | 4.0 | 0.00 | 0.00 | 0.00 | 82 | 973.4 |
| 20260510075511 | 54 | 257 | 0.0 | 4.0 | 0.00 | 0.00 | 0.00 | 83 | 973.3 |
| 20260510075010 | 54 | 253 | 0.0 | 4.0 | 0.00 | 0.00 | 0.00 | 84 | 973.2 |
| 20260510074510 | 53 | 253 | 2.0 | 4.0 | 0.00 | 0.00 | 0.00 | 85 | 973.2 |
| 20260510074014 | 53 | 224 | 0.0 | 3.0 | 0.00 | 0.00 | 0.00 | 85 | 973.2 |
| 20260510073513 | 53 | 222 | 0.0 | 2.0 | 0.00 | 0.00 | 0.00 | 85 | 973.2 |
| 20260510073013 | 53 | 222 | 0.0 | 2.0 | 0.00 | 0.00 | 0.00 | 85 | 973.1 |
| 20260510072512 | 53 | 222 | 0.0 | 4.0 | 0.00 | 0.00 | 0.00 | 86 | 973.2 |
| 20260510072009 | 52 | 222 | 0.0 | 4.0 | 0.00 | 0.00 | 0.00 | 86 | 973.1 |
| 20260510071513 | 52 | 221 | 0.0 | 1.0 | 0.00 | 0.00 | 0.00 | 85 | 973.1 |
| 20260510071009 | 52 | 221 | 0.0 | 1.0 | 0.00 | 0.00 | 0.00 | 85 | 973.1 |
| 20260510070508 | 52 | 221 | 0.0 | 1.0 | 0.00 | 0.00 | 0.00 | 85 | 973.0 |
| 20260510070007 | 52 | 221 | 0.0 | 1.0 | 0.00 | 0.00 | 0.00 | 85 | 973.0 |
| 20260510065507 | 52 | 221 | 0.0 | 1.0 | 0.00 | 0.00 | 0.00 | 85 | 973.1 |
| 20260510065006 | 52 | 221 | 0.0 | 1.0 | 0.00 | 0.00 | 0.00 | 85 | 973.0 |
| 20260510064505 | 52 | 221 | 0.0 | 0.0 | 0.00 | 0.00 | 0.00 | 85 | 973.0 |
| 20260510064005 | 52 | 221 | 0.0 | 0.0 | 0.00 | 0.00 | 0.00 | 85 | 973.1 |
| 20260510063505 | 52 | 221 | 0.0 | 0.0 | 0.00 | 0.00 | 0.00 | 85 | 973.1 |
| 20260510063005 | 53 | 221 | 0.0 | 0.0 | 0.00 | 0.00 | 0.00 | 85 | 973.1 |
| 20260510062504 | 53 | 221 | 0.0 | 0.0 | 0.00 | 0.00 | 0.00 | 85 | 973.3 |
| 20260510062004 | 53 | 221 | 0.0 | 2.0 | 0.00 | 0.00 | 0.00 | 84 | 973.3 |
| 20260510061508 | 53 | 221 | 0.0 | 2.0 | 0.00 | 0.00 | 0.00 | 84 | 973.3 |
| 20260510061003 | 53 | 221 | 0.0 | 0.0 | 0.00 | 0.00 | 0.00 | 84 | 973.3 |
| 20260510060503 | 53 | 221 | 0.0 | 0.0 | 0.00 | 0.00 | 0.00 | 84 | 973.2 |
| 20260510060001 | 53 | 221 | 0.0 | 0.0 | 0.00 | 0.00 | 0.00 | 83 | 973.2 |
| 20260510055600 | 53 | 221 | 0.0 | 0.0 | 0.00 | 0.00 | 0.00 | 83 | 973.3 |
| 20260510055100 | 53 | 221 | 0.0 | 0.0 | 0.00 | 0.00 | 0.00 | 83 | 973.4 |
| 20260510054559 | 53 | 221 | 0.0 | 0.0 | 0.00 | 0.00 | 0.00 | 82 | 973.3 |
| 20260510054058 | 54 | 221 | 0.0 | 2.0 | 0.00 | 0.00 | 0.00 | 82 | 973.3 |
| 20260510053557 | 54 | 221 | 0.0 | 3.0 | 0.00 | 0.00 | 0.00 | 82 | 973.2 |
| 20260510053115 | 54 | 221 | 1.0 | 2.0 | 0.00 | 0.00 | 0.00 | 82 | 973.3 |
| 20260510052556 | 54 | 221 | 0.0 | 1.0 | 0.00 | 0.00 | 0.00 | 82 | 973.3 |
| 20260510052059 | 54 | 221 | 0.0 | 1.0 | 0.00 | 0.00 | 0.00 | 82 | 973.4 |
| 20260510051605 | 55 | 221 | 0.0 | 3.0 | 0.00 | 0.00 | 0.00 | 82 | 973.3 |
| 20260510051055 | 55 | 221 | 1.0 | 3.0 | 0.00 | 0.00 | 0.00 | 82 | 973.4 |
| 20260510050557 | 54 | 221 | 0.0 | 3.0 | 0.00 | 0.00 | 0.00 | 82 | 973.3 |
| 20260510050107 | 54 | 221 | 0.0 | 2.0 | 0.00 | 0.00 | 0.00 | 81 | 973.3 |
| 20260510045554 | 55 | 221 | 0.0 | 0.0 | 0.00 | 0.00 | 0.00 | 81 | 973.3 |
| 20260510045056 | 55 | 221 | 0.0 | 0.0 | 0.00 | 0.00 | 0.00 | 81 | 973.2 |
| 20260510044604 | 55 | 221 | 0.0 | 0.0 | 0.00 | 0.00 | 0.00 | 81 | 973.2 |
| 20260510044052 | 55 | 221 | 0.0 | 0.0 | 0.00 | 0.00 | 0.00 | 81 | 973.1 |
| 20260510043552 | 55 | 221 | 0.0 | 0.0 | 0.00 | 0.00 | 0.00 | 81 | 973.1 |
| 20260510043057 | 55 | 221 | 0.0 | 0.0 | 0.00 | 0.00 | 0.00 | 81 | 973.3 |
| 20260510042551 | 55 | 221 | 0.0 | 0.0 | 0.00 | 0.00 | 0.00 | 80 | 973.2 |
| 20260510042052 | 55 | 221 | 0.0 | 0.0 | 0.00 | 0.00 | 0.00 | 80 | 973.3 |
| 20260510041548 | 55 | 221 | 0.0 | 0.0 | 0.00 | 0.00 | 0.00 | 80 | 973.2 |
| 20260510041048 | 55 | 221 | 0.0 | 0.0 | 0.00 | 0.00 | 0.00 | 79 | 973.2 |
| 20260510040547 | 56 | 221 | 0.0 | 0.0 | 0.00 | 0.00 | 0.00 | 79 | 973.1 |
| 20260510040047 | 56 | 221 | 0.0 | 0.0 | 0.00 | 0.00 | 0.00 | 79 | 973.1 |
| 20260510035545 | 56 | 221 | 0.0 | 0.0 | 0.00 | 0.00 | 0.00 | 79 | 973.0 |
| 20260510035045 | 56 | 221 | 0.0 | 0.0 | 0.00 | 0.00 | 0.00 | 78 | 973.0 |
| 20260510034545 | 56 | 221 | 0.0 | 0.0 | 0.00 | 0.00 | 0.00 | 78 | 973.1 |
| 20260510034046 | 56 | 221 | 0.0 | 0.0 | 0.00 | 0.00 | 0.00 | 78 | 973.1 |
| 20260510033547 | 56 | 221 | 0.0 | 0.0 | 0.00 | 0.00 | 0.00 | 77 | 973.0 |
| 20260510033057 | 56 | 221 | 0.0 | 0.0 | 0.00 | 0.00 | 0.00 | 77 | 972.9 |
| 20260510032548 | 57 | 221 | 0.0 | 0.0 | 0.00 | 0.00 | 0.00 | 76 | 972.9 |
| 20260510032044 | 57 | 221 | 0.0 | 0.0 | 0.00 | 0.00 | 0.00 | 76 | 972.8 |
| 20260510031545 | 57 | 221 | 0.0 | 0.0 | 0.00 | 0.00 | 0.00 | 75 | 972.8 |
| 20260510031043 | 57 | 221 | 0.0 | 0.0 | 0.00 | 0.00 | 0.00 | 75 | 972.8 |
| 20260510030544 | 57 | 221 | 0.0 | 0.0 | 0.00 | 0.00 | 0.00 | 75 | 972.7 |
| 20260510030100 | 57 | 221 | 0.0 | 0.0 | 0.00 | 0.00 | 0.00 | 74 | 972.7 |
| 20260510025544 | 57 | 221 | 0.0 | 0.0 | 0.00 | 0.00 | 0.00 | 74 | 972.7 |
| 20260510025043 | 58 | 221 | 0.0 | 0.0 | 0.00 | 0.00 | 0.00 | 73 | 972.6 |
| 20260510024543 | 58 | 221 | 0.0 | 0.0 | 0.00 | 0.00 | 0.00 | 73 | 972.6 |
| 20260510024043 | 58 | 221 | 0.0 | 0.0 | 0.00 | 0.00 | 0.00 | 73 | 972.5 |
| 20260510023542 | 58 | 221 | 0.0 | 0.0 | 0.00 | 0.00 | 0.00 | 74 | 972.5 |
| 20260510023043 | 58 | 221 | 0.0 | 0.0 | 0.00 | 0.00 | 0.00 | 74 | 972.5 |
| 20260510022542 | 58 | 221 | 0.0 | 0.0 | 0.00 | 0.00 | 0.00 | 74 | 972.5 |
| 20260510022042 | 58 | 221 | 0.0 | 0.0 | 0.00 | 0.00 | 0.00 | 73 | 972.5 |
| 20260510021543 | 58 | 221 | 0.0 | 0.0 | 0.00 | 0.00 | 0.00 | 73 | 972.4 |
| 20260510021042 | 58 | 221 | 0.0 | 0.0 | 0.00 | 0.00 | 0.00 | 72 | 972.3 |
| 20260510020542 | 59 | 221 | 0.0 | 0.0 | 0.00 | 0.00 | 0.00 | 72 | 972.4 |
| 20260510020042 | 59 | 221 | 0.0 | 0.0 | 0.00 | 0.00 | 0.00 | 71 | 972.3 |
| 20260510015541 | 59 | 221 | 0.0 | 1.0 | 0.00 | 0.00 | 0.00 | 70 | 972.2 |
| 20260510015041 | 60 | 221 | 0.0 | 1.0 | 0.00 | 0.00 | 0.00 | 69 | 972.1 |
| 20260510014542 | 60 | 221 | 0.0 | 2.0 | 0.00 | 0.00 | 0.00 | 68 | 972.0 |
| 20260510014041 | 60 | 221 | 0.0 | 2.0 | 0.00 | 0.00 | 0.00 | 67 | 971.9 |
| 20260510013541 | 61 | 221 | 0.0 | 1.0 | 0.00 | 0.00 | 0.00 | 67 | 971.7 |
| 20260510013040 | 61 | 221 | 0.0 | 2.0 | 0.00 | 0.00 | 0.00 | 67 | 971.6 |
| 20260510012541 | 61 | 221 | 0.0 | 2.0 | 0.00 | 0.00 | 0.00 | 66 | 971.4 |
| 20260510012040 | 62 | 221 | 0.0 | 3.0 | 0.00 | 0.00 | 0.00 | 65 | 971.4 |
| 20260510011541 | 62 | 221 | 0.0 | 3.0 | 0.00 | 0.00 | 0.00 | 65 | 971.2 |
| 20260510011039 | 62 | 221 | 0.0 | 2.0 | 0.00 | 0.00 | 0.00 | 65 | 971.3 |
| 20260510010540 | 62 | 221 | 0.0 | 2.0 | 0.00 | 0.00 | 0.00 | 65 | 971.1 |
| 20260510010040 | 62 | 221 | 0.0 | 2.0 | 0.00 | 0.00 | 0.00 | 64 | 971.1 |
| 20260510005540 | 63 | 221 | 0.0 | 3.0 | 0.00 | 0.00 | 0.00 | 64 | 971.1 |
| 20260510005039 | 63 | 221 | 1.0 | 3.0 | 0.00 | 0.00 | 0.00 | 63 | 971.0 |
| 20260510004541 | 64 | 221 | 1.0 | 3.0 | 0.00 | 0.00 | 0.00 | 62 | 970.9 |
| 20260510004039 | 65 | 221 | 1.0 | 3.0 | 0.00 | 0.00 | 0.00 | 61 | 970.9 |
| 20260510003539 | 65 | 221 | 1.0 | 3.0 | 0.00 | 0.00 | 0.00 | 59 | 970.9 |
| 20260510003046 | 66 | 221 | 2.0 | 3.0 | 0.00 | 0.00 | 0.00 | 57 | 970.9 |
| 20260510002538 | 67 | 221 | 0.0 | 2.0 | 0.00 | 0.00 | 0.00 | 55 | 970.9 |
| 20260510002038 | 68 | 221 | 0.0 | 2.0 | 0.00 | 0.00 | 0.00 | 53 | 970.8 |
| 20260510001539 | 69 | 221 | 0.0 | 2.0 | 0.00 | 0.00 | 0.00 | 50 | 970.8 |
| 20260510001038 | 69 | 221 | 0.0 | 5.0 | 0.00 | 0.00 | 0.00 | 52 | 970.6 |
| 20260510000540 | 70 | 237 | 1.0 | 4.0 | 0.00 | 0.00 | 0.00 | 50 | 970.6 |
| 20260510000138 | 70 | 238 | 0.0 | 2.0 | 0.00 | 0.00 | 0.00 | 51 | 970.4 |
| 20260509235537 | 71 | 238 | 0.0 | 5.0 | 0.00 | 0.00 | 0.00 | 49 | 970.4 |
| 20260509235041 | 71 | 238 | 1.0 | 5.0 | 0.00 | 0.00 | 0.00 | 49 | 970.4 |
| 20260509234551 | 71 | 240 | 1.0 | 5.0 | 0.00 | 0.00 | 0.00 | 46 | 970.3 |
| 20260509234039 | 71 | 239 | 1.0 | 4.0 | 0.00 | 0.00 | 0.00 | 47 | 970.2 |
| 20260509233541 | 72 | 206 | 1.0 | 7.0 | 0.00 | 0.00 | 0.00 | 46 | 970.1 |
| 20260509233038 | 72 | 267 | 0.0 | 7.0 | 0.00 | 0.00 | 0.00 | 45 | 970.0 |
| 20260509232536 | 72 | 266 | 1.0 | 4.0 | 0.00 | 0.00 | 0.00 | 44 | 970.1 |
| 20260509232037 | 73 | 219 | 0.0 | 4.0 | 0.00 | 0.00 | 0.00 | 44 | 970.1 |
| 20260509231537 | 73 | 219 | 1.0 | 5.0 | 0.00 | 0.00 | 0.00 | 44 | 970.0 |
| 20260509231036 | 73 | 254 | 1.0 | 5.0 | 0.00 | 0.00 | 0.00 | 44 | 970.0 |
| 20260509230536 | 73 | 233 | 1.0 | 5.0 | 0.00 | 0.00 | 0.00 | 44 | 969.8 |
| 20260509230040 | 74 | 15 | 3.0 | 10.0 | 0.00 | 0.00 | 0.00 | 44 | 969.8 |
| 20260509225536 | 74 | 178 | 3.0 | 10.0 | 0.00 | 0.00 | 0.00 | 43 | 969.8 |
| 20260509225035 | 74 | 254 | 2.0 | 7.0 | 0.00 | 0.00 | 0.00 | 47 | 969.8 |
| 20260509224535 | 74 | 271 | 1.0 | 4.0 | 0.00 | 0.00 | 0.00 | 47 | 969.7 |
| 20260509224037 | 74 | 30 | 0.0 | 6.0 | 0.00 | 0.00 | 0.00 | 46 | 969.7 |
| 20260509223536 | 74 | 190 | 0.0 | 5.0 | 0.00 | 0.00 | 0.00 | 47 | 969.7 |
| 20260509223040 | 74 | 226 | 1.0 | 3.0 | 0.00 | 0.00 | 0.00 | 46 | 969.8 |
| 20260509222538 | 75 | 218 | 0.0 | 4.0 | 0.00 | 0.00 | 0.00 | 46 | 969.7 |
| 20260509222036 | 75 | 213 | 2.0 | 6.0 | 0.00 | 0.00 | 0.00 | 44 | 969.6 |
| 20260509221537 | 75 | 208 | 0.0 | 8.0 | 0.00 | 0.00 | 0.00 | 45 | 969.7 |
| 20260509221034 | 75 | 190 | 2.0 | 7.0 | 0.00 | 0.00 | 0.00 | 44 | 969.7 |
| 20260509220533 | 76 | 252 | 1.0 | 12.0 | 0.00 | 0.00 | 0.00 | 44 | 969.7 |
| 20260509220034 | 77 | 197 | 3.0 | 12.0 | 0.00 | 0.00 | 0.00 | 42 | 969.6 |
| 20260509215536 | 76 | 26 | 3.0 | 8.0 | 0.00 | 0.00 | 0.00 | 43 | 969.6 |
| 20260509215033 | 75 | 254 | 2.0 | 9.0 | 0.00 | 0.00 | 0.00 | 44 | 969.5 |
| 20260509214533 | 75 | 207 | 2.0 | 9.0 | 0.00 | 0.00 | 0.00 | 43 | 969.6 |
| 20260509214032 | 75 | 22 | 1.0 | 6.0 | 0.00 | 0.00 | 0.00 | 45 | 969.5 |
| 20260509213532 | 75 | 104 | 2.0 | 6.0 | 0.00 | 0.00 | 0.00 | 45 | 969.5 |
| 20260509213033 | 76 | 13 | 1.0 | 9.0 | 0.00 | 0.00 | 0.00 | 44 | 969.4 |
| 20260509212536 | 76 | 270 | 2.0 | 9.0 | 0.00 | 0.00 | 0.00 | 43 | 969.3 |
| 20260509212034 | 76 | 360 | 3.0 | 8.0 | 0.00 | 0.00 | 0.00 | 44 | 969.2 |
| 20260509211532 | 76 | 269 | 2.0 | 8.0 | 0.00 | 0.00 | 0.00 | 44 | 969.1 |
| 20260509211032 | 76 | 30 | 2.0 | 8.0 | 0.00 | 0.00 | 0.00 | 44 | 969.2 |
| 20260509210534 | 76 | 17 | 1.0 | 8.0 | 0.00 | 0.00 | 0.00 | 43 | 969.2 |
| 20260509210035 | 76 | 250 | 1.0 | 4.0 | 0.00 | 0.00 | 0.00 | 44 | 969.2 |
| 20260509205532 | 76 | 248 | 1.0 | 6.0 | 0.00 | 0.00 | 0.00 | 44 | 969.2 |
| 20260509205032 | 76 | 55 | 1.0 | 6.0 | 0.00 | 0.00 | 0.00 | 43 | 969.1 |
| 20260509204531 | 76 | 223 | 1.0 | 5.0 | 0.00 | 0.00 | 0.00 | 44 | 969.2 |
| 20260509204031 | 76 | 254 | 1.0 | 7.0 | 0.00 | 0.00 | 0.00 | 43 | 969.0 |
| 20260509203530 | 76 | 271 | 1.0 | 8.0 | 0.00 | 0.00 | 0.00 | 43 | 969.0 |
| 20260509203029 | 76 | 15 | 3.0 | 7.0 | 0.00 | 0.00 | 0.00 | 42 | 969.0 |
| 20260509202530 | 76 | 13 | 3.0 | 9.0 | 0.00 | 0.00 | 0.00 | 42 | 969.1 |
| 20260509202030 | 77 | 10 | 2.0 | 11.0 | 0.00 | 0.00 | 0.00 | 42 | 969.0 |
| 20260509201529 | 77 | 275 | 4.0 | 11.0 | 0.00 | 0.00 | 0.00 | 41 | 968.9 |
| 20260509201031 | 76 | 48 | 3.0 | 9.0 | 0.00 | 0.00 | 0.00 | 42 | 969.0 |
| 20260509200532 | 77 | 22 | 5.0 | 9.0 | 0.00 | 0.00 | 0.00 | 42 | 968.9 |
| 20260509200029 | 76 | 360 | 3.0 | 9.0 | 0.00 | 0.00 | 0.00 | 42 | 969.0 |
| 20260509195531 | 76 | 10 | 1.0 | 10.0 | 0.00 | 0.00 | 0.00 | 42 | 968.9 |
| 20260509195028 | 76 | 271 | 4.0 | 10.0 | 0.00 | 0.00 | 0.00 | 43 | 969.0 |
| 20260509194526 | 76 | 13 | 3.0 | 13.0 | 0.00 | 0.00 | 0.00 | 43 | 969.0 |
| 20260509194026 | 77 | 43 | 5.0 | 13.0 | 0.00 | 0.00 | 0.00 | 42 | 969.0 |
| 20260509193526 | 78 | 23 | 3.0 | 6.0 | 0.00 | 0.00 | 0.00 | 41 | 969.0 |
| 20260509193033 | 79 | 270 | 3.0 | 8.0 | 0.00 | 0.00 | 0.00 | 42 | 969.1 |
| 20260509192525 | 78 | 73 | 3.0 | 9.0 | 0.00 | 0.00 | 0.00 | 41 | 969.0 |
| 20260509192027 | 78 | 271 | 3.0 | 10.0 | 0.00 | 0.00 | 0.00 | 42 | 969.0 |
| 20260509191523 | 78 | 44 | 4.0 | 11.0 | 0.00 | 0.00 | 0.00 | 42 | 969.2 |
| 20260509191022 | 77 | 5 | 2.0 | 15.0 | 0.00 | 0.00 | 0.00 | 43 | 969.2 |
| 20260509190522 | 77 | 26 | 3.0 | 15.0 | 0.00 | 0.00 | 0.00 | 45 | 969.3 |
| 20260509190023 | 77 | 274 | 2.0 | 6.0 | 0.00 | 0.00 | 0.00 | 43 | 969.3 |
| 20260509185521 | 77 | 271 | 1.0 | 7.0 | 0.00 | 0.00 | 0.00 | 45 | 969.4 |
| 20260509185021 | 77 | 271 | 3.0 | 7.0 | 0.00 | 0.00 | 0.00 | 43 | 969.4 |
| 20260509184526 | 77 | 231 | 3.0 | 7.0 | 0.00 | 0.00 | 0.00 | 42 | 969.5 |
| 20260509184020 | 78 | 360 | 2.0 | 8.0 | 0.00 | 0.00 | 0.00 | 42 | 969.4 |
| 20260509183519 | 78 | 19 | 2.0 | 10.0 | 0.00 | 0.00 | 0.00 | 46 | 969.4 |
| 20260509183018 | 77 | 271 | 3.0 | 10.0 | 0.00 | 0.00 | 0.00 | 43 | 969.5 |
| 20260509182517 | 77 | 267 | 3.0 | 10.0 | 0.00 | 0.00 | 0.00 | 42 | 969.5 |
| 20260509182016 | 77 | 23 | 3.0 | 10.0 | 0.00 | 0.00 | 0.00 | 43 | 969.5 |
| 20260509181515 | 77 | 26 | 1.0 | 12.0 | 0.00 | 0.00 | 0.00 | 44 | 969.6 |
| 20260509181018 | 77 | 360 | 2.0 | 12.0 | 0.00 | 0.00 | 0.00 | 45 | 969.8 |
| 20260509180515 | 76 | 14 | 2.0 | 9.0 | 0.00 | 0.00 | 0.00 | 44 | 969.8 |
| 20260509180013 | 77 | 63 | 2.0 | 8.0 | 0.00 | 0.00 | 0.00 | 45 | 969.9 |
| 20260509175513 | 77 | 207 | 2.0 | 5.0 | 0.00 | 0.00 | 0.00 | 46 | 969.9 |
| 20260509175014 | 76 | 144 | 1.0 | 8.0 | 0.00 | 0.00 | 0.00 | 45 | 970.0 |